"TOA5","AWS1","CR1000","7964","CR1000.Std.14","CPU:AWS1_114.CR1","64363","TBL110"
"TIMESTAMP","RECORD","Wind_spd_WVc(1)","Wind_spd_WVc(2)","Air_Temp_Avg","Humidity_Avg","SW_upper_Wm2_Avg","Rain_Tot","Press_Avg","Issui_Tot","Depth_cm","SR50A_Raw","Quality","Ground_Temp_Avg(1)","Ground_Temp_Avg(2)","SW_lower_Wm2_Avg","Albedo_Avg","SWC_per(1)","SWC_per(2)","Period(1)","Period(2)"
"TS","RN","","","","","","","","","","","","","","","","","","",""
"","","WVc","WVc","Avg","Avg","Avg","Tot","Avg","Tot","Smp","Smp","Smp","Avg","Avg","Avg","Avg","Smp","Smp","Smp","Smp"
"2018-07-18 00:00:00",349837,0.42,183,18.18,87.2,0,0,868.6703,0,15.65,2.927,237,22.67,21.46,0.2501952,0,44.09,52.32,31.79,33.87
"2018-07-18 00:10:00",349838,0.085,193.3,18.31,86.2,0,0,868.6703,0,2.969,3.05,242,22.68,21.46,0.3601294,0,44.04,52.32,31.78,33.87
"2018-07-18 00:20:00",349839,0.42,195.3,18.07,86.6,0,0,868.6703,0,14.88,2.936,226,22.65,21.46,0.2274496,0,44.04,52.27,31.78,33.85
"2018-07-18 00:30:00",349840,0.558,185,17.94,85.3,0,0,868.6703,0,14.7,2.938,235,22.59,21.46,0.2274444,0,44.04,52.27,31.78,33.85
"2018-07-18 00:40:00",349841,0.449,186.5,17.92,84.9,0,0,868.6724,0,6.359,3.019,321,22.54,21.46,0.2274464,0,44.04,52.32,31.78,33.87
"2018-07-18 00:50:00",349842,0.457,186.3,17.91,85,0,0,868.6703,0,14.41,2.941,236,22.49,21.46,0.2388212,0,44.04,52.27,31.78,33.85
"2018-07-18 01:00:00",349843,0.395,185.6,17.94,85.1,0,0,868.6703,0,12.92,2.955,274,22.49,21.46,0.2388222,0,44.04,52.27,31.78,33.85
"2018-07-18 01:10:00",349844,0.036,185.4,18.12,84.5,0,0,868.6703,0,-27.55,3.346,195,22.44,21.46,0.4473185,0,44.09,52.27,31.79,33.85
"2018-07-18 01:20:00",349845,0.039,85.4,18.43,81.2,0,0,868.6703,0,13.06,2.951,243,22.43,21.46,0.8643106,0,44.09,52.27,31.79,33.85
"2018-07-18 01:30:00",349846,0.06,77.65,19.06,76.63,0,0,868.6724,0,12.89,2.946,315,22.44,21.46,1.467054,0,44.04,52.27,31.78,33.85
"2018-07-18 01:40:00",349847,0.07,70.41,20.06,72.18,0,0,868.6893,0,13.29,2.945,240,22.33,21.46,1.834765,0,44.09,52.27,31.79,33.85
"2018-07-18 01:50:00",349848,0.133,71.17,19.19,77.51,0,0,868.6787,0,13.16,2.948,228,22.34,21.46,0.2729402,0,44.04,52.27,31.78,33.85
"2018-07-18 02:00:00",349849,0.019,131,18.42,80.9,0,0,868.7209,0,13.93,2.941,240,22.29,21.47,0.06823505,0,44.04,52.27,31.78,33.85
"2018-07-18 02:10:00",349850,0.022,88.4,19.55,72.72,0,0,868.902,0,-30.58,3.365,195,22.25,21.49,1.421564,0,44.09,52.27,31.79,33.85
"2018-07-18 02:20:00",349851,0.089,10.09,20.6,67.21,0.2083762,0,868.923,0,18.21,2.888,326,22.26,21.48,2.369273,1.828,44.09,52.27,31.79,33.85
"2018-07-18 02:30:00",349852,0.172,155.3,20.93,64.72,0.1100843,0,868.923,0,-19.5,3.253,171,22.18,21.47,1.777888,1.864,44.09,52.27,31.79,33.85
"2018-07-18 02:40:00",349853,0.251,163.4,20.7,65.81,0.2280321,0,868.9651,0,20.55,2.867,342,22.14,21.47,0.8832554,1.896,44.09,52.21,31.79,33.84
"2018-07-18 02:50:00",349854,0.212,169.5,20.37,67.78,0,0,869.121,0,20.84,2.867,301,22.13,21.46,0.1554229,0,44.04,52.27,31.78,33.85
"2018-07-18 03:00:00",349855,0.152,41.82,20.54,66.54,0,0,869.1716,0,20.96,2.862,307,22.06,21.47,0.4814235,0,44.09,52.21,31.79,33.84
"2018-07-18 03:10:00",349856,0.22,141.7,21.06,63.82,0,0,869.1484,0,20.85,2.864,339,22.05,21.45,0.5913375,0,44.09,52.27,31.79,33.85
"2018-07-18 03:20:00",349857,0.264,179.4,20.86,64.39,0,0,869.0811,0,20.06,2.871,340,22.03,21.42,0.2918552,0,44.09,52.27,31.79,33.85
"2018-07-18 03:30:00",349858,0.234,145.7,20.72,65.08,0,0,869.0262,0,-20.09,3.258,176,21.96,21.41,0.2918384,0,44.09,52.21,31.79,33.84
"2018-07-18 03:40:00",349859,0.497,241.4,21.04,63.7,0,0,869.0473,0,-18.75,3.247,171,21.92,21.4,0.3828018,0,44.09,52.21,31.79,33.84
"2018-07-18 03:50:00",349860,0.377,213.1,20.76,64.52,0,0,869.159,0,20.58,2.868,313,21.93,21.35,0,0,44.09,52.27,31.79,33.85
"2018-07-18 04:00:00",349861,0.551,199.3,20.67,65.64,0,0,869.1758,0,19.54,2.878,305,21.87,21.32,0.007580238,0,44.09,52.27,31.79,33.85
"2018-07-18 04:10:00",349862,0.579,202.9,20.49,66.29,0,0,869.1758,0,-22.97,3.288,179,21.85,21.33,0.05685251,0,44.09,52.27,31.79,33.85
"2018-07-18 04:20:00",349863,0.526,175,20.2,68.41,0,0,869.1737,0,21.68,2.86,384,21.84,21.31,0.007580143,0,44.09,52.21,31.79,33.84
"2018-07-18 04:30:00",349864,0.463,198.3,20.6,65.9,0,0,869.1779,0,21.42,2.86,315,21.77,21.31,0.2842457,0,44.09,52.21,31.79,33.84
"2018-07-18 04:40:00",349865,0.495,199.3,20.44,66.84,0,0,869.1822,0,19.77,2.878,370,21.73,21.33,0.06063869,0,44.09,52.21,31.79,33.84
"2018-07-18 04:50:00",349866,0.474,180.2,20.16,69.06,0,0,869.1863,0,20.33,2.875,475,21.74,21.35,0.02652913,0,44.15,52.21,31.81,33.84
"2018-07-18 05:00:00",349867,0.314,166.9,19.65,72,0.4088065,0,869.218,0,21.05,2.869,430,21.73,21.34,0.05306032,0.092,44.09,52.21,31.79,33.84
"2018-07-18 05:10:00",349868,0.121,98.7,19.12,74.85,3.514265,0,869.22,0,22.04,2.862,442,21.67,21.31,0.03032133,0.006,44.09,52.21,31.79,33.84
"2018-07-18 05:20:00",349869,0.119,160.4,18.9,75.75,7.861803,0,869.1863,0,22.09,2.86,447,21.67,21.25,0.5988443,0.069,44.09,52.21,31.79,33.84
"2018-07-18 05:30:00",349870,0.273,160.9,19.09,74.63,11.90321,0,869.1758,0,22.1,2.86,366,21.71,21.25,1.353125,0.113,44.09,52.21,31.79,33.84
"2018-07-18 05:40:00",349871,0.17,140.3,19.27,73.28,14.73015,0,869.1758,0,21.39,2.866,297,21.72,21.26,1.826976,0.125,44.09,52.21,31.79,33.84
"2018-07-18 05:50:00",349872,0.08,203.8,19.96,69.34,25.17522,0,869.1758,0,21.65,2.858,432,21.65,21.26,4.650814,0.18,44.09,52.21,31.79,33.84
"2018-07-18 06:00:00",349873,0.193,135.1,19.62,73.65,69.9804,0,869.1737,0,21.54,2.866,417,21.61,21.26,10.98862,0.167,44.09,52.21,31.79,33.84
"2018-07-18 06:10:00",349874,0.356,145.7,19.44,75.44,92.46883,0,869.0895,0,21.68,2.863,307,21.62,21.27,14.21456,0.177,44.09,52.21,31.79,33.84
"2018-07-18 06:20:00",349875,0.177,159.5,19.76,75.92,65.6062,0,868.9252,0,19.71,2.879,417,21.6,21.27,16.70499,0.277,44.15,52.21,31.81,33.84
"2018-07-18 06:30:00",349876,0.186,138.2,20.03,76.16,75.79198,0,868.923,0,23.42,2.843,317,21.53,21.27,19.91929,0.299,44.15,52.21,31.81,33.84
"2018-07-18 06:40:00",349877,0.041,140,20.22,76.73,53.44796,0,868.923,0,21.8,2.857,283,21.52,21.25,23.40557,0.44,44.09,52.21,31.79,33.84
"2018-07-18 06:50:00",349878,0.111,151.4,20.63,74.98,100.3743,0,868.9378,0,-20.08,3.258,175,21.49,21.23,24.93502,0.259,44.15,52.16,31.81,33.83
"2018-07-18 07:00:00",349879,0.094,130.6,20.82,74.76,81.94409,0,868.9462,0,-23.69,3.295,189,21.48,21.24,25.71879,0.321,44.09,52.21,31.79,33.84
"2018-07-18 07:10:00",349880,0.2,158,20.9,74.18,90.38042,0,868.9631,0,-20.24,3.259,171,21.42,21.26,28.36449,0.399,44.09,52.21,31.79,33.84
"2018-07-18 07:20:00",349881,0.025,133.8,21.14,74.08,53.14223,0,868.923,0,-21.08,3.267,175,21.37,21.21,27.23413,0.518,44.15,52.16,31.81,33.83
"2018-07-18 07:30:00",349882,0.18,115.4,21.34,74.04,70.33247,0,868.923,0,-27.25,3.324,196,21.34,21.14,26.90726,0.396,44.09,52.16,31.79,33.83
"2018-07-18 07:40:00",349883,0.084,116,21.71,72.87,62.38803,0,868.923,0,-24.34,3.294,193,21.34,21.12,29.11628,0.47,44.15,52.16,31.81,33.83
"2018-07-18 07:50:00",349884,0.204,338.4,22.18,66.28,66.02252,0,868.8367,0,15.2,2.911,256,21.33,21.11,34.24693,0.523,44.09,52.16,31.79,33.83
"2018-07-18 08:00:00",349885,0.449,314.1,22.67,63.51,517.7639,0,868.6766,0,14.56,2.915,240,21.3,21.11,46.16112,0.108,44.15,52.16,31.81,33.83
"2018-07-18 08:10:00",349886,0.411,10.76,22.93,64.02,637.8602,0,868.6703,0,13.63,2.924,274,21.21,21.11,73.58652,0.115,44.15,52.16,31.81,33.83
"2018-07-18 08:20:00",349887,0.372,142.6,23.1,64.93,657.6008,0,868.5145,0,15.77,2.903,309,21.29,21.08,88.69221,0.135,44.15,52.16,31.81,33.83
"2018-07-18 08:30:00",349888,0.288,173.1,23.37,64.89,624.0698,0,868.4176,0,-20.96,3.251,183,21.32,21.05,88.86961,0.142,44.09,52.16,31.79,33.83
"2018-07-18 08:40:00",349889,0.539,197.1,23.98,59.43,635.7187,0,868.4176,0,-26.58,3.303,190,21.26,21.06,93.85225,0.148,44.09,52.16,31.79,33.83
"2018-07-18 08:50:00",349890,0.489,328,24.15,59.61,722.4857,0,868.3986,0,-19.75,3.238,192,21.23,21.02,108.0666,0.15,44.15,52.16,31.81,33.83
"2018-07-18 09:00:00",349891,0.344,4.267,24.2,64.05,749.9066,0,868.1901,0,-20.33,3.244,188,21.2,20.97,109.5103,0.146,44.15,52.16,31.81,33.83
"2018-07-18 09:10:00",349892,0.667,15.96,23.76,69.1,726.3799,0,868.1649,0,-23.15,3.272,195,21.15,20.95,104.9514,0.144,44.15,52.16,31.81,33.83
"2018-07-18 09:20:00",349893,0.671,21.17,23.83,69.31,810.0085,0,868.1649,0,-21.64,3.258,192,21.15,20.98,119.6776,0.148,44.09,52.16,31.79,33.83
"2018-07-18 09:30:00",349894,0.663,16.45,23.99,70.08,862.6508,0,868.1649,0,21.16,2.845,455,21.15,20.97,128.511,0.149,44.15,52.1,31.81,33.81
"2018-07-18 09:40:00",349895,0.531,7.569,24.41,69.82,893.4407,0,868.1649,0,-23.65,3.272,189,21.15,20.96,132.9145,0.149,44.15,52.1,31.81,33.81
"2018-07-18 09:50:00",349896,0.677,16.16,24.55,69.62,914.2909,0,868.148,0,18.28,2.87,290,21.15,20.91,136.9845,0.15,44.09,52.1,31.79,33.81
"2018-07-18 10:00:00",349897,0.652,5.4,24.85,66.96,927.1625,0,868.0721,0,-22.28,3.258,297,21.15,20.89,139.4098,0.15,44.09,52.1,31.79,33.81
"2018-07-18 10:10:00",349898,0.843,14.75,24.73,65.54,949.8914,0,868.049,0,14.44,2.907,262,21.15,20.89,145.041,0.153,44.04,52.1,31.78,33.81
"2018-07-18 10:20:00",349899,0.666,20.64,25.18,63.65,967.3026,0,868.1122,0,16.05,2.888,291,21.18,20.86,148.4061,0.153,44.04,52.1,31.78,33.81
"2018-07-18 10:30:00",349900,0.479,349.7,25.6,57.99,978.7397,0,868.0068,0,-20.79,3.238,197,21.19,20.85,150.6533,0.154,44.04,52.1,31.78,33.81
"2018-07-18 10:40:00",349901,0.431,305,25.74,54.14,999.1811,0,867.9121,0,16.88,2.879,274,21.2,20.83,153.4121,0.154,44.04,52.05,31.78,33.8
"2018-07-18 10:50:00",349902,0.299,325.3,26.15,53.26,1011.479,0,867.9079,0,16.97,2.875,297,21.27,20.81,154.4808,0.153,43.99,52.05,31.77,33.8
"2018-07-18 11:00:00",349903,0.487,293.8,26.04,53.97,1013.028,0,867.8194,0,21.04,2.838,319,21.25,20.8,155.2311,0.153,43.99,52.05,31.77,33.8
"2018-07-18 11:10:00",349904,0.352,282.1,26,55.21,1014.144,0,867.811,0,20.1,2.846,277,21.34,20.79,155.2197,0.153,43.94,52.05,31.75,33.8
"2018-07-18 11:20:00",349905,0.325,297.6,26.38,53.45,1029.912,0,867.6804,0,-17.71,3.206,195,21.39,20.73,157.8914,0.153,43.89,52.05,31.74,33.8
"2018-07-18 11:30:00",349906,0.558,319.7,26.44,52.91,1052.267,0,867.6593,0,-21.02,3.236,211,21.42,20.72,163.0262,0.155,43.89,51.99,31.74,33.79
"2018-07-18 11:40:00",349907,0.229,282.7,26.97,50.99,1046.246,0,867.6172,0,21.4,2.83,246,21.49,20.72,163.8485,0.157,43.84,52.05,31.72,33.8
"2018-07-18 11:50:00",349908,0.404,284.7,26.65,50.67,1048.793,0,867.4108,0,19.58,2.847,305,21.54,20.72,165.406,0.158,43.78,51.99,31.71,33.79
"2018-07-18 12:00:00",349909,0.663,353.1,27.03,48.72,1045.008,1.5,867.4066,0,-19.28,3.217,226,21.61,20.72,165.1294,0.158,43.78,51.94,31.71,33.77
"2018-07-18 12:10:00",349910,0.442,315.5,27,47.47,1048.435,0.5,867.3939,0,-19.04,3.214,204,21.71,20.75,166.8423,0.159,43.73,51.99,31.7,33.79
"2018-07-18 12:20:00",349911,0.683,292.4,26.87,44.52,1047.795,9,867.2802,0,19.77,2.847,295,21.77,20.77,168.9568,0.161,43.73,51.99,31.7,33.79
"2018-07-18 12:30:00",349912,0.304,276.4,27.11,44.31,1028.348,0,867.2444,0,-18.08,3.206,234,21.88,20.76,167.7593,0.163,43.68,51.94,31.68,33.77
"2018-07-18 12:40:00",349913,0.513,302.4,27.16,43.88,1025.88,0,867.2213,0,21.17,2.831,293,21.95,20.74,165.8873,0.162,43.63,51.94,31.67,33.77
"2018-07-18 12:50:00",349914,0.363,278.6,26.89,43.27,995.1133,0,867.2549,0,20.29,2.84,270,22.02,20.73,160.5668,0.161,43.58,51.94,31.66,33.77
"2018-07-18 13:00:00",349915,0.529,270.1,26.97,42.91,991.2263,0,867.1939,0,-21.79,3.241,209,22.12,20.72,162.0485,0.163,43.53,51.94,31.64,33.77
"2018-07-18 13:10:00",349916,0.353,244.5,27.14,42.08,977.1008,0,867.177,0,20.23,2.841,238,22.18,20.72,159.1874,0.163,43.53,51.88,31.64,33.76
"2018-07-18 13:20:00",349917,0.378,266.5,26.84,41.74,967.8685,0,867.1917,0,3.017,3.005,206,22.28,20.72,158.9184,0.164,43.42,51.88,31.62,33.76
"2018-07-18 13:30:00",349918,0.312,283.9,27.06,41.26,952.5129,0,867.1707,0,21.3,2.83,366,22.36,20.72,156.0307,0.164,43.42,51.82,31.62,33.75
"2018-07-18 13:40:00",349919,0.377,253,27.38,42.53,939.5076,0,867.1539,0,21.4,2.828,280,22.44,20.72,152.946,0.163,43.42,51.82,31.62,33.75
"2018-07-18 13:50:00",349920,0.493,318.8,27.31,43.56,935.9625,0,867.1539,0,-17.25,3.197,196,22.53,20.72,151.199,0.162,43.37,51.82,31.6,33.75
"2018-07-18 14:00:00",349921,0.556,95,27.52,44.59,935.483,0,867.1454,0,21.73,2.824,274,22.59,20.72,148.4402,0.159,43.32,51.82,31.59,33.75
"2018-07-18 14:10:00",349922,0.536,44.72,27.47,44.24,912.5458,0,867.0759,0,19.42,2.846,253,22.69,20.72,142.6119,0.156,43.27,51.77,31.58,33.73
"2018-07-18 14:20:00",349923,0.448,265.3,27.6,42.98,892.7646,0,866.9032,0,21.39,2.826,292,22.77,20.72,137.2383,0.154,43.22,51.77,31.56,33.73
"2018-07-18 14:30:00",349924,0.481,285.9,27.25,40.87,868.051,0,866.9011,0,18.3,2.858,266,22.8,20.72,127.9274,0.147,43.22,51.77,31.56,33.73
"2018-07-18 14:40:00",349925,0.518,268.9,26.92,41.81,839.6979,0,866.9011,0,16.33,2.878,253,22.86,20.72,115.3158,0.137,43.17,51.71,31.55,33.72
"2018-07-18 14:50:00",349926,0.436,311.4,26.89,43.3,814.9017,0,866.8885,0,21.3,2.832,283,22.92,20.69,97.56561,0.12,43.11,51.71,31.53,33.72
"2018-07-18 15:00:00",349927,0.431,259.6,26.55,43.74,784.949,0,866.899,0,21.89,2.828,343,23.02,20.67,75.62794,0.096,43.11,51.71,31.53,33.72
"2018-07-18 15:10:00",349928,0.34,265.3,26.33,44.04,754.1749,0,866.9011,0,19.36,2.852,262,23.12,20.7,46.27034,0.061,43.01,51.71,31.51,33.72
"2018-07-18 15:20:00",349929,0.453,200.8,26.36,43.73,245.5447,0,866.9369,0,-17.64,3.206,207,23.09,20.72,27.49314,0.128,43.01,51.66,31.51,33.7
"2018-07-18 15:30:00",349930,0.674,79.71,26.29,46.95,145.3202,0,867.139,0,-18.59,3.216,210,23.19,20.73,21.22171,0.157,43.01,51.66,31.51,33.7
"2018-07-18 15:40:00",349931,0.359,72.36,26.09,49.08,60.98757,0,867.139,0,-17.81,3.209,189,23.25,20.78,16.19686,0.27,42.96,51.66,31.49,33.7
"2018-07-18 15:50:00",349932,0.635,63.2,25.86,50.15,52.40879,0,867.1791,0,-18.09,3.213,200,23.32,20.83,13.87414,0.265,42.91,51.6,31.48,33.69
"2018-07-18 16:00:00",349933,0.467,113.7,25.57,52.07,53.96309,0,867.1749,0,21.46,2.836,309,23.36,20.88,11.8963,0.221,42.86,51.66,31.47,33.7
"2018-07-18 16:10:00",349934,0.473,55.91,25.44,51.98,52.1049,0,867.1539,0,17.04,2.879,241,23.41,20.85,10.48668,0.201,42.86,51.66,31.47,33.7
"2018-07-18 16:20:00",349935,0.303,225.6,25.01,54.51,47.92422,0,867.137,0,16.91,2.883,256,23.47,20.84,9.099866,0.19,42.81,51.6,31.45,33.69
"2018-07-18 16:30:00",349936,0.227,220.3,24.69,56.77,53.98134,0,867.1496,0,-27.45,3.308,201,23.52,20.86,8.133382,0.157,42.81,51.6,31.45,33.69
"2018-07-18 16:40:00",349937,0.326,232,24.58,57.76,44.88557,0,867.1539,0,-19.79,3.236,210,23.54,20.9,7.341265,0.165,42.81,51.6,31.45,33.69
"2018-07-18 16:50:00",349938,0.416,196,24.33,59.45,42.02538,0,867.1539,0,13.92,2.915,247,23.55,20.94,5.931577,0.141,42.76,51.6,31.44,33.69
"2018-07-18 17:00:00",349939,0.305,190.6,24.1,59.9,39.76165,0,867.1539,0,18.01,2.876,243,23.56,20.99,5.359331,0.135,42.76,51.6,31.44,33.69
"2018-07-18 17:10:00",349940,0.426,184.7,24.04,60.02,38.32753,0,867.2002,0,18.42,2.872,321,23.57,21.06,5.181285,0.135,42.76,51.55,31.44,33.68
"2018-07-18 17:20:00",349941,0.245,183.8,23.91,60.27,36.56614,0,867.3708,0,15.87,2.898,257,23.57,21.09,4.559646,0.125,42.7,51.55,31.43,33.68
"2018-07-18 17:30:00",349942,0.292,176.4,23.65,62.8,34.08549,0,867.217,0,12.41,2.932,256,23.58,21.07,3.979719,0.117,42.76,51.55,31.44,33.68
"2018-07-18 17:40:00",349943,0.273,170.6,23.5,63.06,31.47597,0,867.2275,0,12.47,2.931,257,23.64,21.08,3.57424,0.114,42.7,51.55,31.43,33.68
"2018-07-18 17:50:00",349944,0.02,147,23.42,64.02,28.00421,0,867.3876,0,13.3,2.925,526,23.64,21.07,3.077644,0.11,42.7,51.55,31.43,33.68
"2018-07-18 18:00:00",349945,0.261,62.42,23.2,63.5,24.59962,0,867.4003,0,13.22,2.926,510,23.62,21.09,2.683421,0.109,42.7,51.55,31.43,33.68
"2018-07-18 18:10:00",349946,0.241,62.47,22.87,65.13,20.6139,0,867.4066,0,10.82,2.951,265,23.63,21.18,2.027749,0.098,42.65,51.55,31.41,33.68
"2018-07-18 18:20:00",349947,0.128,64.41,22.76,64.01,17.55972,0,867.4066,0,10.56,2.955,268,23.64,21.2,1.933011,0.109,42.7,51.49,31.43,33.66
"2018-07-18 18:30:00",349948,0.074,207.7,22.56,63.7,14.9537,0,867.4066,0,12.3,2.938,246,23.63,21.2,1.751108,0.117,42.7,51.49,31.43,33.66
"2018-07-18 18:40:00",349949,0.081,101.5,22.27,65.06,11.44769,0,867.4086,0,12.07,2.943,248,23.6,21.22,1.114388,0.096,42.65,51.49,31.41,33.66
"2018-07-18 18:50:00",349950,0.027,201.1,21.96,67.36,7.068349,0,867.4066,0,11.59,2.948,272,23.55,21.23,0.682282,0.1,42.7,51.49,31.43,33.66
"2018-07-18 19:00:00",349951,0.088,163.6,21.48,70.81,2.606445,0,867.4129,0,12.56,2.943,242,23.58,21.22,0.1478296,0.037,42.65,51.49,31.41,33.66
"2018-07-18 19:10:00",349952,0.133,179.8,20.85,75.13,0,0,867.5561,0,-20.19,3.259,177,23.53,21.25,0,0,42.65,51.49,31.41,33.66
"2018-07-18 19:20:00",349953,0.131,178.4,20.6,76.95,0,0,867.6593,0,21.3,2.863,267,23.5,21.34,0,0,42.65,51.49,31.41,33.66
"2018-07-18 19:30:00",349954,0.264,192.1,20,81.1,0,0,867.6593,0,21.3,2.864,322,23.49,21.36,0,0,42.65,51.49,31.41,33.66
"2018-07-18 19:40:00",349955,0.331,185,19.87,82.4,0,0,867.7162,0,21.01,2.869,372,23.4,21.37,0,0,42.65,51.44,31.41,33.65
"2018-07-18 19:50:00",349956,0.345,186.8,19.5,85.7,0,0,867.8489,0,12.93,2.947,234,23.43,21.37,0.003790721,0,42.7,51.44,31.43,33.65
"2018-07-18 20:00:00",349957,0.29,175.8,19.43,86.8,0,0,867.9121,0,10.89,2.968,235,23.41,21.37,0.08339629,0,42.7,51.44,31.43,33.65
"2018-07-18 20:10:00",349958,0.199,186.4,19.38,88.2,0,0,867.9184,0,12.64,2.95,273,23.38,21.36,0.2160717,0,42.65,51.44,31.41,33.65
"2018-07-18 20:20:00",349959,0.253,189.4,19.35,88.5,0,0,868.0195,0,10.94,2.968,259,23.35,21.4,0.2274449,0,42.65,51.44,31.41,33.65
"2018-07-18 20:30:00",349960,0.39,189.9,19.22,91.2,0,0,868.1122,0,10.03,2.977,271,23.27,21.42,0.2388203,0,42.65,51.44,31.41,33.65
"2018-07-18 20:40:00",349961,0.137,191.5,19.26,91,0,0,867.99,0,9.6,2.982,244,23.29,21.46,0.4662713,0,42.65,51.44,31.41,33.65
"2018-07-18 20:50:00",349962,0.075,173.8,18.98,93,0,0,868.1649,0,-28.71,3.352,185,23.17,21.46,0.1743783,0,42.65,51.44,31.41,33.65
"2018-07-18 21:00:00",349963,0.047,173.6,19.11,91.7,0,0,868.1649,0,8.56,2.993,243,23.2,21.46,0.4776453,0,42.65,51.44,31.41,33.65
"2018-07-18 21:10:00",349964,0.366,197.8,18.73,94.7,0,0,868.1649,0,6.672,3.011,452,23.12,21.46,0.2805219,0,42.65,51.44,31.41,33.65
"2018-07-18 21:20:00",349965,0.176,199.5,18.75,94,0,0,868.1649,0,7.225,3.007,444,23.1,21.46,0.3639203,0,42.65,51.38,31.41,33.64
"2018-07-18 21:30:00",349966,0.281,188.3,18.55,96.2,0,0,868.1606,0,5.928,3.02,250,23.12,21.46,0.2274502,0,42.65,51.38,31.41,33.64
"2018-07-18 21:40:00",349967,0.181,188.1,18.54,96.7,0,0,868.1585,0,7.455,3.005,235,23.05,21.49,0.2274502,0,42.7,51.44,31.43,33.65
"2018-07-18 21:50:00",349968,0.353,187.3,18.37,98,0,0,868.129,0,8.16,3,224,23.02,21.53,0.2274502,0,42.65,51.38,31.41,33.64
"2018-07-18 22:00:00",349969,0.186,195.6,18.35,99.5,0,0,868.148,0,6.124,3.019,279,22.95,21.58,0.3866653,0,42.65,51.44,31.41,33.65
"2018-07-18 22:10:00",349970,0.238,193.4,18.2,99.7,0,0,868.089,0,6.264,3.019,298,22.95,21.59,0.2426135,0,42.65,51.38,31.41,33.64
"2018-07-18 22:20:00",349971,0.15,195.3,18.2,100,0,0,867.9352,0,8.39,2.998,269,22.87,21.59,0.3146394,0,42.65,51.44,31.41,33.65
"2018-07-18 22:30:00",349972,0.265,200.9,18.09,100,0,0,867.9521,0,8.21,2.999,246,22.85,21.59,0.3601294,0,42.65,51.44,31.41,33.65
"2018-07-18 22:40:00",349973,0.333,191,18.17,100,0,0,867.9226,0,-30.83,3.378,183,22.77,21.59,0.4700637,0,42.7,51.44,31.43,33.65
"2018-07-18 22:50:00",349974,0.26,186.5,18.2,100,0,0,867.9184,0,1.476,3.064,219,22.77,21.59,0.6179063,0,42.65,51.44,31.41,33.65
"2018-07-18 23:00:00",349975,0.405,186.4,18.24,100,0,0,867.9121,0,-32.61,3.395,196,22.74,21.59,0.5913686,0,42.65,51.44,31.41,33.65
"2018-07-18 23:10:00",349976,0.418,188.1,18.17,100,0,0,867.9121,0,-30.83,3.378,184,22.67,21.59,0.519338,0,42.65,51.44,31.41,33.65
"2018-07-18 23:20:00",349977,0.333,180.9,18.02,100,0,0,867.9121,0,8.63,2.997,235,22.69,21.59,0.2653567,0,42.65,51.38,31.41,33.64
"2018-07-18 23:30:00",349978,0.423,181.3,17.83,100,0,0,867.91,0,9.81,2.986,264,22.62,21.59,0.2274496,0,42.65,51.38,31.41,33.64
"2018-07-18 23:40:00",349979,0.168,197.7,17.96,100,0,0,867.8763,0,11.72,2.967,309,22.59,21.59,0.5345076,0,42.65,51.38,31.41,33.64
"2018-07-18 23:50:00",349980,0.129,197.9,18.01,100,0,0,867.8721,0,-22.55,3.299,170,22.51,21.59,0.5307171,0,42.65,51.38,31.41,33.64
